Regional Weather Roundup
Issued by NWS

Home | Current Version | Previous Version | Text Only | Print | Product List | Glossary Off
Versions: 1 2 3 4 5 6 7 8 9 10 11 12 13 14 15 16 17 18 19 20 21 22 23 24 25 26 27 28 29 30 31 32 33 34 35 36 37 38 39 40 41 42 43 44 45 46 47 48 49 50

000
ASUS43 KDTX 160810
RWRMI
MICHIGAN HOURLY REGIONAL WEATHER ROUNDUP
NATIONAL WEATHER SERVICE DETROIT/PONTIAC MI
ISSUED BY NATIONAL WEATHER SERVICE GRAND RAPIDS MI
300 AM EST MON JAN 16 2017

NOTE: "FAIR" INDICATES FEW OR NO CLOUDS BELOW 12,000 FEET WITH NO
SIGNIFICANT WEATHER AND/OR OBSTRUCTION TO VISIBILITY.

MIZ047>049-052>055-059>063-066>070-074>076-081>083-160900-
SOUTHEAST LOWER MICHIGAN

CITY           SKY/WX    TMP DP  RH WIND       PRES   REMARKS
ADRIAN         CLOUDY    20  19  96 E3        30.35S FOG
ALMA           CLOUDY    20  19  95 CALM      30.32R FOG
ANN ARBOR      PTCLDY    15  12  88 CALM      30.34R FOG
BAD AXE        CLOUDY    21  18  90 SW3       30.32S
DETROIT CITY   PTCLDY    21  19  92 S3        30.35S FOG
DETROIT        CLOUDY    20  17  88 CALM      30.37R FOG
FLINT          CLOUDY    20  18  92 S5        30.33R WCI  13
GROSSE ILE     PTCLDY    21  19  92 CALM      30.35R
HILLSDALE      CLOUDY    19  18  93 CALM      30.30S FOG
HOWELL         PTCLDY    23  20  89 SW3       30.32R

CITY           SKY/WX    TMP DP  RH WIND       PRES   REMARKS
JACKSON        MIX PCPN  20  16  84 CALM      30.32S FOG
LANSING        CLOUDY    23  18  81 S5        30.32S WCI  17
MASON          CLOUDY    22  21  96 S3        30.32S FOG
MONROE         CLEAR     21  20  97 N3        30.36R FOG
MT. CLEMENS    PTCLDY    18  17  95 CALM      30.33R
PONTIAC        CLOUDY    18  15  88 CALM      30.31S FOG
PORT HOPE        N/A     21  19  92 VRB3      30.30S
PORT HURON     CLOUDY    18  16  93 CALM      30.35R FOG
TRI CITIES     CLOUDY    23  21  92 SW3       30.32S FOG
YPSILANTI      PTCLDY    21  18  88 CALM      30.36R FOG
$$
MIZ043>046-050>051-056>058-064>065-071>073-077>080-160900-
SOUTHWEST LOWER MICHIGAN

CITY           SKY/WX    TMP DP  RH WIND       PRES   REMARKS
BATTLE CREEK   CLOUDY    22  20  92 CALM      30.32R
BENTON HARBOR  PTCLDY    27  23  85 CALM      30.30F FOG
BIG RAPIDS     CLOUDY    11   8  89 CALM      30.28S
COLDWATER      PTCLDY    24  21  90 SE3       30.31S
HOLLAND        PTCLDY    23  20  88 S5        30.32R WCI  17
GRAND RAPIDS   CLOUDY    21  18  88 S8        30.32R FOG     WCI  11
KALAMAZOO      PTCLDY    23  18  81 CALM      30.31R HAZE
MARSHALL       CLOUDY    20  19  95 CALM      30.32R FOG
MOUNT PLEASANT CLOUDY    16  13  90 CALM      30.30R FOG
MUSKEGON       CLOUDY    21  19  92 S5        30.31R FOG     WCI  15
STURGIS        PTCLDY    26  22  85 E5        30.30S WCI  20
$$
MIZ016>042-160900-
NORTHERN LOWER MICHIGAN

CITY           SKY/WX    TMP DP  RH WIND       PRES   REMARKS
ALPENA         CLOUDY    21  13  71 SW5       30.25S WCI  15
BEAVER ISLAND  CLEAR     30  25  80 SW14G20   30.22S WCI  20
BELLAIRE       CLOUDY     8   6  92 CALM      30.28S
CADILLAC       CLOUDY    15  13  92 SW3       30.24S FOG
CHARLEVOIX     CLOUDY    28  24  87 S6        30.27S WCI  21
GAYLORD        CLOUDY    20  15  81 W7        30.22S WCI  11
HOUGHTON LAKE  CLOUDY    17  15  92 SW5       30.27S WCI  10
MANISTEE       MOCLDY    12  10  92 E5        30.29R WCI   4
OSCODA         CLOUDY    20  18  91 SW7       30.28S WCI  11
PELLSTON       CLOUDY    27  21  78 SW9       30.23R WCI  18
TRAVERSE CITY  PTCLDY    24  20  84 SW5       30.26S WCI  18
LUDINGTON      PTCLDY    15  13  95 CALM      30.29R FOG
$$
MIZ007>008-015-160900-
EASTERN UPPER MICHIGAN

CITY           SKY/WX    TMP DP  RH WIND       PRES   REMARKS
KINROSS        CLEAR     27  25  92 SW8       30.18R WCI  19
MACKINAC ISLAN CLEAR     29  26  88 SW14G20   30.20S WCI  18
NEWBERRY       CLOUDY    20  17  86 SW13      30.16S WCI   8
S. S. MARIE    CLOUDY    28  23  81 SW8       30.16R WCI  20
$$
MIZ004>006-011>014-085-160900-
CENTRAL UPPER MICHIGAN

CITY           SKY/WX    TMP DP  RH WIND       PRES   REMARKS
MANISTIQUE     PTCLDY    22  15  74 SW10      30.20R WCI  11
ESCANABA       CLOUDY    15  11  83 SW7       30.21S WCI   5
SAWYER-GWINN   CLEAR     20  10  65 SW9       30.13S WCI  10
$$
MIZ001>003-009>011-084-160900-
WESTERN UPPER MICHIGAN

CITY           SKY/WX    TMP DP  RH WIND       PRES   REMARKS
IRON MOUNTAIN  CLOUDY    15   6  67 CALM      30.16R
HOUGHTON       CLEAR     26  15  63 W20       30.08R WCI  12
COPPER HARBOR    N/A     30  21  69 VRB3      30.08R
IRONWOOD       CLOUDY    21  15  78 SW7       30.15S WCI  12
$$

ABBREVIATIONS USED IN REMARKS
   TC - TEMPERATURE IN CELSIUS
  WCI - WIND CHILL INDEX
   HX - HEAT INDEX
  VSB - VISIBILITY




USA.gov is the U.S. government's official web portal to all federal, state and local government web resources and services.